Weather History for Newport, VT

Change the Weather History Date:

Sunday, March 2, 2014

  Actual Average Record
Temperature  
Mean Temperature 18 °F -  
Max Temperature 29 °F 33 °F 53 °F (1990)
Min Temperature 6 °F 13 °F -21 °F (1980)
Degree Days  
Heating Degree Days 48    
Moisture  
Dew Point 4 °F    
Average Humidity 58    
Maximum Humidity 82    
Minimum Humidity 39    
Precipitation  
Precipitation 0.00 in - - ()
Sea Level Pressure  
Sea Level Pressure 30.03 in    
Wind  
Wind Speed 7 mph (NW)    
Max Wind Speed 15 mph    
Max Gust Speed 16 mph    
Visibility 8 miles    
Events Snow    
Averages and records for this station are not official NWS values.
T = Trace of Precipitation, MM = Missing Value Source: NWS Daily Summary

Daily Weather History Graph

Daily Weather History Graph

Search for Another Location

Airport:

Trip Planner

Search our weather history database for the weather conditions in past years. The results will help you decide how hot, cold, wet, or windy it might be!

Date:

Astronomy

Mar. 02, 2014 Rise Set
Actual Time 6:24 AM EST 5:37 PM EST
Civil Twilight 5:55 AM EST 6:07 PM EST
Nautical Twilight 5:21 AM EST 6:41 PM EST
Astronomical Twilight 4:47 AM EST 7:15 PM EST
Moon 6:49 AM EST (3/2) 7:37 PM EST (3/2)
Length of Visible Light 12h 11m
Length of Day
11h 12m
Waxing Crescent, 3% of the Moon is Illuminated
Mar 2
Waxing Crescent
Mar 8
First Quarter
Mar 16
Full
Mar 23
Last Quarter
Mar 30
New

Hourly Weather History & Observations

Time (EST) Temp. Windchill Dew Point Humidity Pressure Visibility Wind Dir Wind Speed Gust Speed Precip Events Conditions
12:15 AM 26.2 °F 17.8 °F 8.1 °F 46% 29.95 in 10.0 mi SSW 8.1 mph - N/A   Overcast
12:35 AM 26.4 °F 18.9 °F 7.9 °F 46% 29.95 in 10.0 mi SSW 6.9 mph - N/A   Scattered Clouds
12:55 AM 26.6 °F 21.2 °F 8.8 °F 47% 29.95 in 10.0 mi SW 4.6 mph - N/A   Mostly Cloudy
1:15 AM 29.1 °F 21.3 °F 11.8 °F 49% 29.96 in 10.0 mi West 8.1 mph - N/A   Overcast
1:35 AM 28.0 °F 20.8 °F 14.9 °F 58% 29.97 in 10.0 mi West 6.9 mph - N/A   Overcast
1:55 AM 27.3 °F 19.1 °F 15.8 °F 62% 29.97 in 10.0 mi WSW 8.1 mph - N/A Snow Light Snow
2:15 AM 26.6 °F 21.2 °F 17.6 °F 69% 29.98 in 7.0 mi SW 4.6 mph - N/A Snow Light Snow
2:35 AM 25.7 °F - 18.9 °F 75% 29.99 in 3.0 mi Calm Calm - N/A Snow Light Snow
3:00 AM 25.3 °F - 19.9 °F 80% 29.97 in 1.2 mi Calm Calm - N/A Snow Snow
3:15 AM 25.2 °F - 20.3 °F 82% 29.97 in 1.5 mi Calm Calm - N/A Snow Light Snow
3:35 AM 24.8 °F 19.1 °F 19.2 °F 79% 29.99 in 1.5 mi NNW 4.6 mph - N/A Snow Light Snow
3:55 AM 23.0 °F 15.8 °F 17.6 °F 80% 29.99 in 1.5 mi North 5.8 mph - N/A Snow Light Snow
4:15 AM 22.6 °F 18.0 °F 17.2 °F 80% 30.00 in 4.0 mi NNE 3.5 mph - N/A Snow Light Snow
4:35 AM 22.5 °F 10.5 °F 17.2 °F 80% 30.01 in 2.5 mi NNW 12.7 mph 16.1 mph N/A Snow Light Snow
4:55 AM 18.7 °F 5.1 °F 12.9 °F 78% 30.02 in 3.0 mi NNW 13.8 mph - N/A Snow Light Snow
5:15 AM 17.6 °F 4.3 °F 11.1 °F 76% 30.04 in 4.0 mi North 12.7 mph - N/A Snow Light Snow
5:35 AM 17.2 °F 3.9 °F 11.1 °F 77% 30.04 in 3.0 mi North 12.7 mph - N/A Snow Light Snow
5:55 AM 16.5 °F 3.6 °F 10.9 °F 79% 30.04 in 2.5 mi NNW 11.5 mph - N/A Snow Light Snow
6:15 AM 15.6 °F 0.6 °F 10.0 °F 79% 30.06 in 2.0 mi NNW 15.0 mph - N/A Snow Light Snow
6:35 AM 14.4 °F -1.0 °F 8.4 °F 77% 30.06 in 4.0 mi North 15.0 mph - N/A Snow Light Snow
6:55 AM 14.0 °F 1.2 °F 6.8 °F 73% 30.06 in 4.0 mi NNW 10.4 mph - N/A Snow Light Snow
7:15 AM 14.0 °F 2.0 °F 7.2 °F 74% 30.08 in 1.8 mi NNW 9.2 mph - N/A Snow Light Snow
7:35 AM 14.0 °F 2.0 °F 6.8 °F 73% 30.08 in 2.5 mi NNW 9.2 mph - N/A Snow Light Snow
7:55 AM 14.0 °F 3.9 °F 7.0 °F 74% 30.09 in 4.0 mi North 6.9 mph - N/A Snow Light Snow
8:15 AM 14.0 °F 6.5 °F 7.0 °F 74% 30.09 in 5.0 mi NNW 4.6 mph - N/A Snow Light Snow
8:35 AM 14.5 °F 3.6 °F 6.4 °F 70% 30.09 in 7.0 mi North 8.1 mph - N/A   Overcast
8:55 AM 15.4 °F 4.6 °F 5.9 °F 66% 30.09 in 7.0 mi North 8.1 mph - N/A   Overcast
9:15 AM 15.4 °F 3.0 °F 5.0 °F 63% 30.09 in 7.0 mi North 10.4 mph - N/A   Overcast
9:35 AM 15.4 °F 4.6 °F 3.9 °F 60% 30.09 in 10.0 mi NNW 8.1 mph - N/A   Overcast
9:55 AM 15.6 °F 4.0 °F 2.5 °F 56% 30.08 in 10.0 mi North 9.2 mph - N/A   Overcast
10:15 AM 15.8 °F 4.2 °F 3.7 °F 59% 30.08 in 10.0 mi North 9.2 mph - N/A   Overcast
10:35 AM 15.8 °F 5.1 °F 4.5 °F 61% 30.09 in 7.0 mi North 8.1 mph - N/A   Overcast
10:55 AM 17.1 °F 8.7 °F 5.0 °F 59% 30.09 in 7.0 mi NNE 5.8 mph - N/A Snow Light Snow
11:15 AM 17.2 °F 7.8 °F 5.4 °F 60% 30.09 in 10.0 mi NNE 6.9 mph - N/A   Overcast
11:35 AM 17.8 °F - 3.7 °F 54% 30.08 in 10.0 mi Calm Calm - N/A   Mostly Cloudy
11:55 AM 18.9 °F 10.8 °F 4.8 °F 54% 30.07 in 10.0 mi NNE 5.8 mph - N/A   Mostly Cloudy
12:15 PM 17.6 °F 10.7 °F 3.9 °F 55% 30.06 in 10.0 mi NNE 4.6 mph - N/A   Overcast
12:35 PM 17.6 °F 7.3 °F 4.6 °F 57% 30.05 in 10.0 mi NNE 8.1 mph - N/A   Overcast
12:55 PM 17.2 °F 8.9 °F 4.3 °F 57% 30.04 in 10.0 mi NE 5.8 mph - N/A   Overcast
1:15 PM 18.5 °F - 4.6 °F 55% 30.03 in 10.0 mi Calm Calm - N/A   Overcast
1:35 PM 18.5 °F - 3.9 °F 53% 30.02 in 10.0 mi Calm Calm - N/A   Overcast
1:55 PM 19.2 °F 10.2 °F 1.8 °F 47% 30.01 in 10.0 mi North 6.9 mph - N/A   Overcast
2:15 PM 19.4 °F 14.3 °F 2.3 °F 48% 30.01 in 10.0 mi WNW 3.5 mph - N/A   Overcast
2:35 PM 18.5 °F 10.4 °F 3.6 °F 52% 30.01 in 10.0 mi West 5.8 mph - N/A   Overcast
2:55 PM 18.7 °F 11.9 °F 4.5 °F 54% 30.01 in 7.0 mi WSW 4.6 mph - N/A   Overcast
3:15 PM 18.5 °F 8.4 °F 1.4 °F 47% 30.02 in 10.0 mi WNW 8.1 mph - N/A   Overcast
3:35 PM 19.0 °F 8.2 °F 0.3 °F 44% 30.02 in 10.0 mi WNW 9.2 mph - N/A   Overcast
3:55 PM 18.5 °F 6.1 °F -1.5 °F 42% 30.03 in 10.0 mi West 11.5 mph - N/A   Mostly Cloudy
4:15 PM 18.5 °F 8.4 °F -2.9 °F 39% 30.03 in 10.0 mi WNW 8.1 mph - N/A   Scattered Clouds
4:35 PM 17.4 °F 6.2 °F -3.1 °F 40% 30.04 in 10.0 mi NW 9.2 mph 16.1 mph N/A   Clear
4:55 PM 16.7 °F 4.5 °F -3.6 °F 41% 30.03 in 10.0 mi WNW 10.4 mph - N/A   Clear
5:15 PM 15.4 °F 5.6 °F -4.5 °F 41% 30.04 in 10.0 mi NW 6.9 mph - N/A   Clear
5:35 PM 14.4 °F 3.3 °F -6.9 °F 39% 30.03 in 10.0 mi NW 8.1 mph - N/A   Clear
5:55 PM 13.1 °F 2.8 °F -4.5 °F 45% 30.03 in 10.0 mi WNW 6.9 mph - N/A   Mostly Cloudy
6:15 PM 12.0 °F 2.7 °F -4.5 °F 48% 30.04 in 10.0 mi NW 5.8 mph - N/A   Scattered Clouds
6:35 PM 10.9 °F 1.4 °F -4.9 °F 49% 30.04 in 10.0 mi NW 5.8 mph - N/A   Clear
6:55 PM 10.2 °F 2.0 °F -4.9 °F 51% 30.05 in 10.0 mi NW 4.6 mph - N/A   Scattered Clouds
7:15 PM 9.7 °F 3.2 °F -5.6 °F 50% 30.04 in 10.0 mi NW 3.5 mph - N/A   Scattered Clouds
7:35 PM 10.2 °F 3.8 °F -5.1 °F 50% 30.04 in 10.0 mi NNW 3.5 mph - N/A   Scattered Clouds
7:55 PM 10.4 °F 2.2 °F -5.3 °F 49% 30.04 in 10.0 mi NW 4.6 mph - N/A   Overcast
8:15 PM 10.9 °F 4.7 °F -5.4 °F 48% 30.04 in 10.0 mi NW 3.5 mph - N/A   Overcast
8:35 PM 10.4 °F 4.0 °F -5.4 °F 49% 30.04 in 10.0 mi West 3.5 mph - N/A   Overcast
8:55 PM 10.2 °F 3.8 °F -5.1 °F 50% 30.04 in 10.0 mi West 3.5 mph - N/A   Overcast
9:15 PM 10.9 °F 4.7 °F -5.8 °F 47% 30.04 in 10.0 mi West 3.5 mph - N/A   Overcast
9:35 PM 10.4 °F - -6.0 °F 48% 30.04 in 10.0 mi Calm Calm - N/A   Overcast
9:55 PM 10.0 °F - -6.2 °F 48% 30.04 in 10.0 mi Calm Calm - N/A   Overcast
10:15 PM 6.8 °F - -5.1 °F 58% 30.04 in 10.0 mi Calm Calm - N/A   Overcast
10:35 PM 6.6 °F -0.3 °F -4.7 °F 60% 30.04 in 10.0 mi WNW 3.5 mph - N/A   Overcast
10:55 PM 9.5 °F 3.0 °F -6.3 °F 49% 30.04 in 10.0 mi NNW 3.5 mph - N/A   Overcast
11:15 PM 9.7 °F - -7.8 °F 45% 30.04 in 10.0 mi Calm Calm - N/A   Overcast
11:35 PM 10.0 °F - -8.5 °F 43% 30.03 in 10.0 mi Calm Calm - N/A   Overcast
11:55 PM 9.3 °F - -8.5 °F 44% 30.02 in 10.0 mi Calm Calm - N/A   Mostly Cloudy